Theta_e
338 338 337 338 340 341 340 339 339 339 338 338 338 338 338 338 338 337 338 337 337 337 337 336 335 334 334 333 333 332 332 332 332 332 333 333 333 333 334 335 335 335 335 335 335 334 332 330 330 329 328 330 330 329 328 326 327 331 330 328 327 326 326 324 324 326 325 324 323 322 323 323 324 325 326 326 327 328 330 331 331 331 331 331 331
339 339 339 338 339 341 340 340 340 340 341 340 339 338 337 337 337 337 337 338 338 338 337 336 336 336 335 334 334 334 333 333 333 332 332 334 334 334 334 335 335 335 335 335 335 335 334 331 330 330 329 329 329 329 329 326 326 330 330 329 327 326 325 324 324 326 326 324 323 322 322 323 323 325 325 325 326 328 329 330 331 331 331 331 331
340 340 340 339 339 339 339 340 340 340 341 340 338 337 337 338 338 338 338 339 338 338 338 337 337 337 336 335 335 335 335 335 334 332 332 334 334 335 335 335 336 335 335 335 335 335 335 333 332 331 330 329 329 330 331 329 327 328 329 329 328 326 325 323 324 326 326 324 323 322 322 322 322 324 325 324 325 327 328 329 330 330 330 331 331
340 340 339 338 339 339 339 340 340 340 340 340 339 339 339 339 340 340 340 340 339 339 339 339 339 338 338 337 336 336 336 336 335 334 333 334 334 335 336 336 336 336 336 335 335 335 335 335 333 332 332 330 330 331 332 331 329 328 328 328 327 327 325 324 323 324 325 325 324 323 323 323 321 323 325 323 324 326 328 329 330 330 330 330 330
339 339 339 340 340 340 340 340 340 340 341 341 340 341 341 341 341 341 340 340 340 339 339 339 339 338 338 338 338 337 337 337 337 336 335 334 334 335 336 337 337 337 337 336 335 335 334 334 334 333 332 331 330 332 332 331 331 329 328 328 327 327 326 325 323 323 324 325 324 323 323 324 322 322 323 323 324 325 326 328 329 329 330 330 330
339 339 340 340 340 340 341 341 341 341 341 341 341 341 340 340 339 339 339 339 338 338 337 337 337 337 337 337 337 337 337 338 338 337 336 336 335 335 336 337 337 337 337 336 335 335 333 333 333 333 333 332 331 332 333 332 332 331 330 329 328 327 327 326 324 322 323 325 324 323 323 324 323 322 322 321 323 325 325 327 329 329 329 329 329
340 340 340 340 340 340 341 341 341 341 340 341 341 340 339 338 338 337 337 337 337 336 337 337 337 337 337 336 336 336 337 337 337 337 337 337 337 336 337 337 336 336 335 335 335 333 332 332 332 332 332 333 331 331 332 333 332 332 331 330 329 328 327 326 325 322 322 323 324 323 322 324 324 322 322 321 322 324 324 326 328 328 329 329 328
341 341 340 340 340 340 340 341 340 340 340 340 339 338 339 338 337 337 337 337 337 337 337 337 337 337 337 337 337 337 337 337 337 336 337 337 337 337 337 337 336 336 335 334 334 333 332 333 333 331 330 331 331 331 331 332 333 333 332 332 330 329 328 326 326 324 323 322 324 324 322 324 324 322 323 321 322 324 323 325 327 328 328 328 328
340 341 340 340 340 339 340 341 341 340 340 339 338 338 338 337 337 337 337 337 337 337 337 337 337 337 337 337 336 337 336 336 336 336 336 337 337 337 337 337 337 337 336 335 334 333 332 332 333 332 331 329 331 331 330 330 332 333 333 333 332 331 329 327 326 326 325 322 323 324 322 323 324 322 323 321 321 323 322 324 327 327 327 327 327
339 340 340 340 340 339 340 340 340 340 339 339 338 337 337 336 336 336 336 337 337 337 337 337 337 337 336 336 335 336 336 335 335 335 336 336 336 337 337 337 337 337 337 336 335 334 333 332 333 334 333 331 332 333 332 330 330 333 334 334 333 332 330 328 327 326 325 323 323 324 322 323 323 322 323 322 321 322 322 324 326 327 327 327 326
339 339 339 340 340 339 340 340 339 339 338 337 337 336 336 336 336 336 336 336 336 337 337 337 336 336 336 336 335 335 335 335 335 335 335 336 336 337 337 337 337 337 336 336 336 335 333 333 333 334 334 333 333 333 333 331 330 330 332 334 334 333 331 329 328 327 325 323 322 323 323 323 323 322 323 323 322 322 322 323 324 326 327 326 326
339 339 339 339 339 338 338 337 337 337 337 336 336 335 335 335 336 336 336 336 336 336 336 336 335 335 335 335 334 334 334 334 334 335 335 336 336 336 336 336 336 336 336 336 336 335 334 333 333 333 333 333 334 333 333 333 331 329 329 332 335 334 332 331 329 328 327 324 322 323 324 323 323 323 323 323 323 322 322 322 323 324 326 326 326
337 337 338 338 337 336 336 336 335 335 335 335 335 335 334 335 335 335 335 335 336 336 336 335 335 335 334 334 333 333 333 335 335 336 336 335 335 335 335 335 336 336 336 336 336 336 335 334 333 333 332 333 333 333 333 333 333 331 328 330 333 334 333 332 330 328 328 326 323 323 324 324 323 324 324 323 324 323 322 322 321 323 325 326 326
335 336 336 335 335 334 334 334 334 334 334 334 334 334 333 333 333 334 334 334 334 334 335 335 335 335 334 334 335 333 333 335 335 334 333 333 334 335 335 335 335 335 336 336 335 336 335 334 334 333 333 333 333 333 333 333 334 333 330 328 330 333 333 332 330 330 328 328 325 323 323 324 323 324 324 324 324 323 323 322 320 321 324 325 325
334 334 334 334 333 333 333 333 333 333 333 333 332 332 332 331 332 331 331 331 332 333 333 333 334 335 334 335 336 336 336 336 333 332 333 334 334 334 334 334 335 335 336 336 335 334 334 334 334 334 334 334 334 333 333 333 333 333 332 329 328 330 333 332 331 331 330 328 327 324 323 324 324 324 324 324 324 324 323 322 319 321 324 325 325
332 332 332 332 332 332 332 332 330 330 330 330 329 329 329 329 329 329 328 329 330 331 330 330 333 334 333 335 335 336 337 335 332 332 333 334 333 333 333 334 335 336 335 335 334 333 333 333 333 334 334 334 334 334 333 334 333 333 333 331 329 328 331 332 331 331 331 328 328 326 325 325 324 324 325 325 324 324 324 321 320 323 324 325 325
330 330 330 330 330 330 330 329 328 327 327 327 326 326 326 326 327 327 327 327 328 328 327 327 329 329 330 332 334 335 335 333 333 333 332 332 332 332 332 332 334 335 335 334 333 333 333 333 333 333 333 334 334 334 334 334 334 333 333 333 332 329 329 330 330 330 331 329 328 327 326 326 324 323 324 325 324 324 324 321 320 324 325 325 324
328 327 327 327 327 327 327 327 326 325 325 325 325 324 324 324 325 325 325 325 325 325 325 324 325 325 325 327 329 331 331 331 333 333 331 331 331 331 331 330 329 332 334 334 334 334 333 333 333 333 333 334 334 335 334 334 333 334 334 333 333 332 330 329 328 329 331 331 329 328 327 326 325 323 323 325 324 324 324 321 320 323 324 324 324
326 326 325 325 324 324 324 325 325 324 323 323 323 322 322 323 323 323 323 323 323 323 323 322 323 323 322 323 324 325 326 327 329 329 329 329 327 328 329 327 326 328 330 331 333 334 334 334 334 334 334 334 334 335 334 333 333 333 333 333 333 333 332 330 329 329 330 331 330 329 328 327 325 323 323 324 325 324 324 323 321 322 323 323 323
325 324 323 323 322 322 322 322 322 322 321 321 320 320 320 321 322 321 321 321 321 320 320 320 321 321 320 321 321 321 322 323 324 324 326 326 325 325 325 324 324 326 327 326 327 328 329 331 334 334 334 334 334 334 334 334 333 333 333 333 333 333 332 332 331 330 330 330 330 330 328 327 327 324 323 324 325 324 324 323 323 323 323 322 323
322 322 321 321 320 320 320 320 320 319 319 319 319 319 319 319 319 319 319 319 318 318 318 317 317 318 318 319 319 319 320 321 321 321 323 324 324 324 323 323 323 323 323 322 322 321 322 326 331 333 335 335 334 333 333 333 334 334 333 333 333 333 333 332 331 331 330 329 329 330 329 328 328 326 326 325 325 325 324 323 323 323 324 323 323
320 319 319 319 319 319 318 318 318 318 317 317 317 318 318 317 317 317 316 316 316 316 316 315 315 315 316 316 317 318 319 320 319 320 321 321 322 321 321 321 321 321 320 321 321 320 322 325 327 330 332 334 334 333 333 334 334 334 333 333 333 333 332 332 331 331 331 330 328 328 329 328 328 328 328 327 326 325 324 323 323 324 325 324 323
318 318 318 318 318 318 317 316 315 316 316 316 316 317 316 315 315 314 314 315 315 314 315 314 314 314 314 315 315 316 318 319 318 318 318 319 319 318 319 319 319 319 319 320 320 321 323 324 324 326 327 330 332 332 331 332 332 332 332 332 331 332 333 332 332 332 331 331 329 327 327 327 328 329 329 329 328 326 324 324 324 325 325 324 323
318 317 317 317 316 316 315 315 314 315 315 315 315 315 315 314 314 313 314 314 314 314 314 313 313 313 313 314 315 316 317 317 316 316 316 317 317 317 317 317 317 318 318 318 319 319 321 321 322 321 321 324 328 329 328 329 330 330 330 330 330 331 333 333 332 332 332 332 330 328 325 324 325 328 329 329 329 328 326 325 324 325 325 325 324
317 317 316 316 315 314 314 314 314 314 314 314 314 314 313 313 312 312 313 313 313 314 314 313 312 313 313 313 314 314 315 315 314 313 313 314 315 315 315 315 315 315 315 315 316 316 317 318 318 318 319 321 323 323 323 324 325 325 327 329 329 330 332 333 332 332 332 332 331 329 327 323 322 324 328 329 329 329 328 326 324 325 326 325 325
316 316 316 315 314 314 314 313 313 314 313 314 313 313 312 311 311 311 312 312 312 312 313 313 312 312 312 313 312 311 311 311 311 311 311 311 311 311 311 311 312 312 312 312 313 313 314 315 314 316 318 317 316 316 316 316 318 320 323 326 328 329 330 331 332 332 332 332 332 330 328 326 323 322 325 328 329 329 329 327 325 325 326 325 325
315 315 315 314 314 313 313 313 313 313 313 312 312 312 311 310 310 311 311 311 311 311 312 311 311 310 310 310 309 308 308 308 308 308 309 308 308 307 307 308 308 309 309 309 310 311 311 311 312 313 313 312 311 311 310 311 313 315 317 320 324 327 328 329 331 332 332 332 332 331 330 328 325 322 322 326 329 329 329 327 325 325 326 326 325
314 313 314 314 313 312 312 312 312 312 311 311 310 310 309 309 310 310 310 310 310 310 310 309 309 309 309 308 307 306 306 306 306 306 306 305 304 304 305 306 306 307 307 307 307 308 308 309 310 309 308 308 308 308 308 309 309 311 313 316 319 323 325 326 328 331 332 332 332 332 331 330 328 324 322 323 327 329 329 328 325 324 325 326 326
313 313 312 312 312 311 311 311 311 311 310 310 310 309 309 309 309 309 310 310 309 309 309 308 308 308 307 306 305 304 304 305 304 304 304 303 303 303 303 304 304 305 305 305 305 306 306 307 307 306 306 306 307 307 307 307 308 310 312 314 315 318 322 325 327 328 330 331 332 331 331 331 330 328 325 323 324 326 327 328 326 324 324 326 326
313 312 311 310 309 309 308 309 310 310 310 310 310 309 309 309 309 309 309 308 308 308 307 306 306 306 305 305 304 303 303 303 303 302 302 302 302 302 302 302 303 303 304 304 304 305 305 305 305 305 305 305 305 305 306 306 307 308 309 311 312 314 318 322 326 328 328 328 331 331 331 331 330 330 328 325 323 324 326 328 327 325 325 326 326
311 310 309 308 307 307 307 307 308 309 310 309 309 309 308 308 308 307 307 307 306 306 305 305 305 305 304 303 303 302 302 302 301 301 301 301 301 301 301 301 302 302 303 303 303 303 304 304 304 304 303 303 304 304 305 306 306 307 308 309 311 312 315 317 322 326 327 328 329 331 331 331 331 330 330 327 325 323 323 325 327 327 326 326 326
309 308 307 306 305 305 305 306 307 308 309 309 308 308 308 307 307 306 306 305 305 304 304 304 303 303 303 303 302 302 302 301 301 301 300 300 300 300 300 300 300 301 301 301 302 302 302 302 302 302 303 303 304 304 305 305 306 307 308 308 309 311 313 314 317 322 325 327 329 330 331 331 331 330 330 329 328 325 323 323 326 327 326 325 325
308 306 305 304 304 304 303 304 306 308 308 308 308 307 307 306 306 305 305 305 304 304 303 303 303 303 302 302 301 301 301 301 300 300 300 300 299 299 299 299 299 300 300 301 301 301 301 301 302 302 303 303 304 304 304 305 306 307 307 308 308 309 311 312 314 319 323 325 327 329 330 330 330 330 330 330 329 327 324 323 324 326 327 326 325
306 305 304 304 303 302 301 302 305 307 307 307 307 306 306 305 305 304 304 304 303 303 302 302 302 302 301 301 301 300 300 300 299 299 299 299 299 298 299 299 299 299 300 300 301 301 301 301 302 302 303 303 303 304 304 305 306 306 306 306 307 308 309 310 311 315 320 324 327 328 329 329 330 330 330 330 330 329 327 324 323 324 325 326 325
305 304 303 303 301 300 298 301 305 307 306 306 306 306 305 305 304 304 303 303 302 302 302 301 301 301 301 301 300 300 300 299 299 299 298 298 297 298 298 298 299 299 300 300 300 301 301 302 302 302 303 303 303 304 304 304 305 304 304 305 305 306 307 309 311 312 314 317 320 323 327 329 329 329 330 329 329 329 329 327 325 323 323 325 325
303 302 301 299 298 298 298 300 304 306 306 306 306 305 304 304 303 303 303 302 302 301 301 300 300 301 301 301 300 299 299 299 298 298 297 297 297 298 298 298 298 299 299 300 300 301 301 302 302 302 302 302 302 302 303 303 303 303 303 303 304 305 306 308 308 308 308 309 312 315 321 326 329 329 329 329 329 329 329 329 327 325 323 323 325
303 302 299 297 296 298 299 300 303 305 305 305 305 305 304 303 303 303 302 302 301 300 300 300 300 301 301 300 299 299 298 298 297 297 297 297 298 298 298 298 298 299 299 299 300 300 301 302 302 302 301 301 301 301 301 302 302 302 302 302 303 304 304 304 305 305 307 308 309 311 314 318 323 328 329 329 329 329 329 329 328 326 324 323 324
303 302 300 297 297 299 300 300 302 303 304 305 305 304 303 303 302 302 302 301 300 300 300 300 300 300 300 299 299 299 298 297 297 298 298 298 298 298 298 298 299 299 299 299 299 300 301 301 301 300 300 300 300 300 300 301 301 301 302 302 302 302 302 302 303 304 305 306 306 307 310 312 316 324 329 329 329 329 329 329 329 327 325 323 323
303 302 300 298 297 299 300 301 301 302 303 304 304 304 303 302 302 302 301 300 300 300 299 299 299 299 299 299 299 299 297 297 297 298 298 298 298 298 299 299 299 299 299 299 299 299 299 299 299 299 299 299 299 299 299 299 300 300 301 301 302 302 302 302 302 303 303 304 304 306 308 310 313 319 325 328 329 329 329 328 328 327 326 323 322
302 302 300 298 298 299 300 300 301 302 302 303 304 303 303 302 302 301 301 300 300 299 298 298 299 299 299 299 299 298 297 297 298 298 298 298 299 299 299 299 299 299 299 298 298 298 298 298 298 298 298 298 298 298 298 299 299 300 300 301 301 301 301 301 302 302 303 304 305 306 308 313 316 320 323 326 328 329 329 328 328 327 325 324 322
302 300 299 297 298 299 300 300 301 301 302 302 303 303 303 302 301 301 301 300 300 299 298 298 299 299 298 298 298 297 297 297 297 298 298 298 299 299 299 299 299 299 298 298 298 298 298 298 298 298 298 298 298 298 298 298 298 299 299 300 300 301 301 301 301 302 303 304 305 307 309 312 314 317 322 325 327 328 329 327 326 326 325 324 322
301 298 296 297 298 299 300 300 300 301 301 301 302 303 302 302 301 301 301 301 300 299 298 298 298 299 298 297 297 297 296 296 296 297 298 298 298 298 299 299 299 299 298 298 298 298 298 298 298 298 298 298 298 298 298 297 298 298 299 299 299 300 300 301 301 302 303 304 306 307 307 308 308 311 317 323 325 327 328 327 326 325 325 324 323
301 298 296 296 297 298 299 300 300 300 300 301 301 302 302 302 301 301 301 301 300 300 299 298 298 298 297 297 297 297 296 296 296 296 297 297 297 298 298 298 298 299 299 298 298 298 298 298 298 298 298 298 298 298 298 297 297 297 298 298 299 300 300 301 302 302 303 304 305 306 306 306 306 308 312 318 322 325 326 327 327 326 326 325 323
302 299 297 296 296 297 299 300 300 300 301 301 301 302 302 302 302 301 301 301 301 300 299 299 298 297 297 296 296 296 296 296 296 296 296 296 296 297 297 298 298 298 298 299 299 298 298 298 298 298 298 298 298 298 298 297 297 297 297 298 298 299 300 301 301 302 303 304 305 306 306 306 306 308 310 314 319 323 325 326 327 327 327 326 323
302 300 298 296 296 296 298 299 300 300 300 301 301 302 302 302 302 302 301 301 301 300 300 299 298 297 296 296 296 296 296 296 296 296 296 296 296 296 297 297 297 298 298 298 299 299 298 298 298 298 298 298 298 298 298 297 296 296 297 297 298 299 300 301 302 302 303 304 305 306 306 306 307 308 310 312 316 321 324 326 326 326 326 326 324
302 300 298 296 295 295 296 298 299 300 300 301 301 302 302 302 302 302 301 301 301 300 300 299 298 297 296 295 295 296 296 296 296 296 296 296 296 296 296 296 297 297 297 298 298 299 298 298 298 298 298 298 298 298 298 297 296 296 297 297 298 299 300 301 301 302 303 304 305 306 306 307 308 309 310 312 316 320 323 324 326 326 326 325 323
302 301 299 298 296 295 295 297 298 299 299 300 301 302 302 302 302 301 301 301 301 300 300 299 299 298 297 296 295 296 296 296 296 296 296 296 296 296 296 296 297 297 297 298 298 298 298 298 298 298 298 298 298 298 298 297 296 296 296 297 298 298 300 300 300 301 302 303 305 307 308 308 309 310 312 314 317 320 322 324 325 324 325 324 322
303 302 301 300 297 295 295 296 296 297 298 300 301 301 302 302 302 301 301 301 301 301 299 299 299 298 297 296 296 296 296 296 296 296 296 296 296 296 296 296 297 296 297 298 298 297 298 298 298 298 298 298 298 298 298 296 296 296 296 297 297 297 299 299 299 300 300 301 304 307 307 308 310 312 314 316 319 321 322 323 323 323 323 323 322
303 302 302 301 298 296 295 295 295 296 296 298 300 301 301 302 302 301 300 300 300 300 299 298 297 297 296 296 296 296 296 296 297 297 296 296 296 296 296 296 296 296 297 297 297 297 297 297 297 297 298 298 298 298 298 297 296 295 296 296 296 297 298 299 299 299 299 300 303 303 302 305 310 314 316 318 319 319 319 319 320 321 321 321 321
302 302 301 300 298 296 295 295 295 295 295 296 297 298 300 301 301 301 300 300 300 300 298 298 297 297 297 297 297 297 296 296 297 297 296 296 296 295 296 296 296 296 296 297 297 296 296 297 297 297 298 298 298 298 298 297 296 295 295 296 296 296 298 298 297 297 298 300 302 301 299 302 308 315 318 317 314 312 312 315 317 318 319 319 319
298 298 298 297 297 297 296 295 295 295 295 295 295 296 297 299 300 300 300 300 300 299 299 299 298 297 297 297 297 297 296 296 296 296 296 296 295 295 295 295 295 295 296 296 296 296 296 296 296 297 297 298 298 298 298 297 296 295 295 295 295 295 297 297 296 296 297 299 299 298 297 301 308 315 317 315 311 308 307 310 313 314 316 317 317
Wind_Speed
6 6 7 6 5 5 4 2 3 3 3 4 6 6 7 8 9 9 9 9 10 11 13 13 13 12 11 13 15 16 15 14 15 15 16 17 14 12 12 12 13 13 12 12 11 11 10 10 10 9 5 8 12 11 10 7 9 9 8 7 6 7 9 8 7 7 5 5 7 6 8 9 8 9 10 8 7 7 7 8 8 8 9 9 9
6 6 6 6 6 6 5 3 2 2 3 5 7 8 9 9 9 9 10 11 12 12 13 15 13 12 11 12 13 14 15 16 17 14 14 15 15 14 14 14 14 15 15 14 14 13 12 11 11 11 9 10 12 11 9 7 9 10 8 9 9 8 9 9 8 7 6 6 7 7 8 11 10 9 10 10 8 8 8 8 9 9 9 10 10
6 6 5 5 6 6 5 4 3 4 5 7 9 8 7 8 8 9 11 12 13 13 14 15 14 14 14 14 13 13 13 13 14 15 15 15 14 15 16 16 16 17 17 16 16 15 14 13 13 14 12 12 12 9 10 9 8 9 9 11 12 10 9 10 9 8 7 7 8 7 7 9 12 11 10 11 10 9 9 9 9 10 10 10 11
4 3 3 3 4 4 4 3 3 4 5 7 8 7 7 8 8 9 12 12 13 13 14 14 15 15 15 15 14 14 13 11 11 13 15 17 17 18 17 16 17 17 18 17 17 17 17 15 14 15 15 14 11 10 12 12 9 9 11 12 14 13 10 9 10 10 9 8 9 8 7 8 11 13 10 11 12 10 11 10 10 11 11 11 11
3 1 2 3 2 1 2 2 3 5 5 7 7 7 7 8 8 9 10 11 12 13 13 14 15 15 15 15 15 14 14 14 13 12 11 13 16 18 18 16 16 17 18 19 19 19 19 18 16 16 17 17 14 13 13 13 13 12 11 13 14 14 11 10 10 11 11 10 10 10 9 8 10 12 10 12 14 11 12 12 11 11 11 11 12
0 1 3 5 4 2 3 3 3 5 5 6 7 7 7 8 8 9 9 10 12 13 13 13 14 15 15 16 16 15 15 16 16 14 12 11 12 16 19 17 17 18 19 20 20 20 20 20 20 18 18 19 17 16 15 15 15 15 14 14 14 13 12 11 10 11 12 11 12 11 11 10 10 11 11 12 14 13 13 13 13 12 12 12 12
1 1 2 2 3 3 3 2 2 4 4 5 6 6 6 8 9 9 10 11 12 13 12 13 14 14 15 15 15 15 15 16 16 14 14 13 13 14 17 18 19 19 20 22 22 21 20 21 22 21 20 20 20 19 18 17 17 17 17 16 15 14 13 13 12 11 12 12 12 12 12 12 11 11 11 12 15 14 14 15 13 14 13 12 12
1 2 3 3 3 4 3 2 2 3 4 5 6 6 7 8 8 9 10 11 12 13 12 13 14 14 15 15 15 15 16 16 16 15 15 16 17 16 16 18 19 21 21 21 22 22 20 19 21 23 22 21 21 21 20 18 18 20 18 17 17 16 15 15 13 11 13 13 13 13 13 13 11 12 11 12 15 15 15 16 14 14 14 13 13
1 3 4 4 4 3 1 2 2 3 5 6 6 6 8 8 8 8 9 11 12 13 13 14 14 15 15 16 16 16 16 16 16 16 16 17 18 18 19 19 20 20 19 20 21 20 19 19 19 22 24 23 22 23 23 21 20 21 19 18 18 17 16 16 14 12 12 13 15 14 14 13 12 13 12 13 16 15 15 16 15 15 15 14 13
1 1 3 4 4 3 2 2 3 4 6 6 6 7 9 8 9 10 9 10 11 12 13 13 14 16 17 17 16 15 16 17 16 16 16 16 16 16 17 19 20 20 19 19 19 18 18 18 18 20 22 23 22 23 24 23 23 23 20 19 19 18 18 17 14 13 12 13 16 15 15 15 13 13 13 13 16 16 16 16 16 17 16 15 14
2 1 3 5 4 4 4 6 6 6 7 8 8 9 9 9 11 12 11 9 9 11 11 12 15 16 15 16 16 17 16 15 15 15 15 15 15 16 16 18 20 20 19 18 17 17 17 17 17 19 21 22 23 23 24 24 25 25 22 21 20 19 20 18 16 15 13 14 16 16 16 16 15 15 14 14 16 17 17 17 17 17 17 17 16
5 5 6 7 7 7 7 8 8 8 8 9 10 10 10 11 12 13 14 12 11 11 11 13 15 15 16 17 16 15 14 13 13 12 12 13 14 15 16 17 18 18 18 18 17 17 17 18 18 19 21 22 23 23 23 24 26 27 26 23 21 20 20 19 18 17 14 14 16 17 17 17 17 16 15 15 15 16 17 18 19 19 18 18 17
9 8 8 8 9 9 9 9 8 8 9 9 11 12 12 12 12 13 14 14 14 13 14 15 13 14 17 18 16 14 12 9 6 7 11 14 15 15 15 16 17 17 18 18 18 18 18 19 19 20 21 22 22 23 23 24 26 28 28 26 22 21 21 20 19 19 17 15 16 17 19 18 19 18 16 16 16 15 16 18 20 20 19 19 18
11 9 9 9 9 9 10 9 8 8 9 9 10 12 13 14 14 15 14 14 14 14 18 16 12 13 13 12 13 15 13 4 6 15 17 14 13 13 15 16 16 16 16 17 18 19 19 19 19 20 21 21 21 21 23 24 26 28 29 29 26 23 22 22 21 20 19 18 17 18 20 20 20 20 18 17 17 16 16 18 21 22 20 19 19
11 9 9 9 8 9 9 9 9 9 9 9 10 11 13 14 15 17 17 16 14 15 20 19 16 16 11 5 5 9 8 4 13 25 17 11 12 13 15 17 17 16 15 17 18 19 19 19 20 20 20 21 21 21 23 24 25 27 29 30 30 27 24 23 23 22 20 20 19 19 21 22 21 21 20 19 17 17 17 18 21 22 21 20 20
11 9 9 8 8 8 8 9 10 10 10 11 12 13 14 15 15 17 18 18 16 15 18 19 19 17 9 4 3 4 3 5 18 21 12 13 15 13 15 18 17 17 16 16 17 18 19 20 21 21 21 21 21 22 23 24 24 26 27 28 29 30 28 24 24 23 22 22 21 20 22 23 23 22 22 20 19 19 18 19 22 22 22 21 20
10 9 8 8 8 7 7 8 9 10 11 11 13 13 14 15 15 16 17 18 16 15 17 17 18 19 13 6 4 2 2 8 13 11 12 17 14 13 16 18 18 18 17 18 18 18 18 19 21 21 22 22 22 22 23 23 24 25 27 27 27 29 30 29 26 25 24 24 23 22 23 24 24 24 23 22 21 21 19 20 23 23 22 21 20
9 8 8 8 8 7 7 7 8 10 10 11 12 13 13 14 15 16 16 16 16 17 19 18 15 18 19 13 9 7 6 10 8 6 12 13 10 15 17 19 23 21 19 21 22 22 21 20 21 21 22 23 23 24 24 24 25 26 27 28 27 27 30 31 30 28 26 26 25 24 24 24 26 25 25 24 23 22 21 22 24 24 23 22 22
8 7 8 8 8 7 6 6 7 9 10 11 13 14 14 14 14 15 15 15 17 18 20 20 17 17 19 17 14 14 13 11 6 5 9 8 12 18 17 21 26 22 21 22 22 23 23 23 23 23 23 24 24 25 25 25 25 26 27 28 28 27 28 31 31 30 29 27 26 26 25 25 26 27 28 27 25 24 23 23 25 25 24 24 23
5 5 6 7 8 8 8 6 7 9 10 11 13 13 14 14 13 14 14 16 18 19 20 21 20 19 20 19 18 18 17 14 13 11 6 5 12 17 19 27 25 19 21 25 25 25 25 25 25 25 25 24 24 25 26 25 24 25 26 27 29 29 29 30 30 30 31 29 28 27 27 27 27 28 30 30 28 27 26 25 25 25 25 25 25
5 5 6 7 8 10 10 8 8 9 10 11 12 13 15 16 15 15 15 15 17 18 20 21 21 20 21 20 19 19 17 15 18 18 9 5 7 9 18 26 24 22 25 26 28 28 26 25 25 25 26 27 26 25 26 26 25 25 25 26 28 30 30 30 30 30 30 31 30 29 29 29 29 29 30 31 31 30 29 27 27 27 26 25 25
7 7 8 9 9 9 10 9 9 9 11 13 13 15 17 16 15 16 16 17 18 19 20 21 21 21 22 21 20 19 16 13 16 18 12 7 6 6 13 17 18 24 28 28 30 28 24 24 25 24 24 27 29 27 27 27 26 26 26 26 27 30 31 31 31 31 31 31 30 30 30 30 30 31 31 31 32 31 31 30 30 29 27 26 26
10 9 10 10 9 8 9 10 12 13 14 15 15 16 17 16 16 17 18 19 19 19 20 20 20 20 21 20 19 18 16 13 15 17 13 9 8 7 11 15 15 20 26 29 29 26 24 25 25 24 25 26 26 23 23 25 26 27 27 27 27 28 30 32 33 33 33 33 32 32 32 31 31 32 32 32 33 31 31 32 31 30 29 28 27
12 11 10 9 9 9 11 13 15 16 15 15 16 16 16 16 16 17 19 19 18 18 19 20 19 19 19 18 18 18 17 16 17 18 17 15 13 8 11 17 15 17 25 27 25 24 22 22 24 26 27 27 25 23 22 22 21 23 26 28 28 28 29 31 34 34 35 36 35 33 33 32 31 32 33 34 34 33 32 32 33 32 31 30 28
12 12 11 10 11 13 14 14 15 15 15 16 16 16 16 16 17 18 19 19 18 17 17 18 19 19 19 19 20 20 20 19 19 20 20 19 16 11 13 16 13 16 23 24 23 24 21 21 25 28 27 25 25 25 26 27 26 25 25 27 28 28 28 29 31 34 36 37 38 36 35 34 32 32 34 35 35 35 33 33 35 35 33 33 31
10 9 10 11 12 14 15 15 15 16 15 16 16 16 17 17 18 19 20 20 18 17 17 18 20 21 20 21 22 22 22 21 21 22 22 19 17 14 14 14 13 15 19 21 23 22 20 24 26 24 24 26 28 29 29 30 29 28 28 29 29 28 28 28 30 33 36 39 39 38 38 37 35 33 34 34 34 35 36 36 36 37 36 35 34
9 9 11 12 13 14 15 15 15 16 16 15 15 15 17 18 19 19 20 19 18 19 19 20 22 23 23 22 23 24 24 23 22 23 22 20 19 19 16 12 11 11 12 16 19 18 21 28 26 22 24 29 32 33 33 32 30 29 29 30 30 30 28 28 31 34 36 38 40 40 40 40 39 36 34 35 35 35 38 40 38 37 38 37 36
11 12 13 12 13 14 14 14 14 16 16 16 17 18 18 20 20 19 19 18 18 19 20 21 21 22 23 23 24 24 23 22 22 21 21 21 21 22 19 14 10 8 8 10 12 14 21 26 26 26 29 32 33 34 34 34 33 31 30 30 31 32 31 30 31 34 35 36 39 41 41 41 41 39 36 37 38 36 37 40 40 39 40 41 40
12 13 13 13 13 14 14 14 14 16 17 17 18 19 19 20 20 19 18 18 19 21 22 22 21 22 23 23 23 23 21 20 19 18 19 21 21 20 19 16 13 9 7 8 9 12 19 24 26 31 36 37 36 36 36 35 34 32 31 32 32 32 33 33 31 31 31 33 37 41 42 42 42 42 41 40 40 39 39 39 39 41 43 43 42
13 13 13 13 14 14 15 15 14 16 17 17 17 18 18 19 20 20 20 20 22 24 24 24 22 22 24 24 23 22 21 20 19 18 18 19 20 19 17 16 15 11 9 9 9 13 20 24 28 33 37 38 38 37 37 35 33 33 33 32 31 31 32 34 34 32 31 32 34 38 41 44 44 43 44 44 42 41 41 40 40 43 45 45 43
14 15 15 15 15 15 15 15 15 15 16 17 18 18 18 19 20 21 21 20 23 24 24 24 22 22 24 24 23 23 21 20 20 18 18 19 19 19 18 17 16 14 14 11 9 14 20 24 29 33 34 36 37 37 36 35 35 35 34 33 32 31 31 32 34 34 33 32 34 36 38 42 44 43 44 44 42 42 43 43 43 44 45 45 45
15 15 16 16 15 15 15 15 15 16 18 19 19 19 19 20 21 22 22 21 22 24 23 23 22 22 23 23 23 23 21 21 21 20 19 21 20 19 18 18 16 15 17 15 11 15 22 23 27 32 32 32 35 35 36 37 37 36 35 35 34 33 32 32 33 33 34 33 34 36 38 40 43 43 43 44 43 43 44 44 44 44 46 47 47
17 17 17 16 15 13 13 14 16 18 19 20 20 20 20 21 22 23 22 22 23 23 23 23 23 22 22 23 23 23 22 22 22 21 21 22 22 20 19 17 17 17 18 18 14 16 22 24 25 28 30 31 33 34 36 37 37 37 37 37 35 33 33 34 33 33 34 35 36 37 37 38 41 42 42 42 44 46 46 46 45 44 46 48 47
18 18 18 16 14 13 13 15 18 19 19 19 20 21 20 21 22 23 22 23 24 24 24 24 23 22 22 23 23 23 23 23 23 23 23 23 23 21 19 17 17 19 21 21 18 17 21 25 27 28 28 30 32 34 35 35 36 36 37 38 37 35 34 34 33 32 31 33 36 37 37 37 38 40 42 41 43 46 47 47 48 46 46 48 49
17 17 16 15 14 13 15 17 18 19 18 18 20 21 22 22 22 22 23 23 24 24 24 24 22 21 22 23 24 24 25 25 25 24 23 24 23 19 19 19 18 20 23 22 21 20 20 23 26 27 28 30 31 33 34 35 35 35 35 37 37 36 34 33 33 33 32 32 34 36 39 41 39 39 42 43 43 45 47 48 49 49 49 49 50
18 16 15 14 14 15 16 17 18 18 17 18 20 22 23 23 22 22 23 23 23 23 23 23 22 22 22 24 26 26 26 27 26 25 24 25 24 21 22 24 23 23 24 23 23 23 21 21 23 25 27 29 30 32 34 34 34 34 34 35 36 35 33 31 33 36 37 34 32 33 36 39 41 40 41 43 44 44 46 48 50 51 52 50 51
19 17 16 16 16 17 19 18 18 17 17 19 21 22 23 23 22 21 21 21 22 23 23 23 23 22 22 24 27 27 28 29 27 27 26 26 25 25 27 28 28 28 27 27 28 26 22 21 23 25 26 27 27 29 31 32 34 35 35 35 34 33 34 35 36 36 36 36 34 33 33 35 39 42 42 42 44 45 45 47 49 52 54 53 52
18 17 17 18 17 19 21 20 19 18 18 20 21 21 22 22 22 20 20 20 21 22 23 23 23 22 22 24 27 28 29 30 28 28 28 27 26 27 27 27 28 29 30 30 30 26 22 21 23 24 25 25 25 26 27 29 31 33 36 36 34 34 35 38 40 38 36 37 39 38 35 34 36 39 43 42 43 45 46 46 48 52 56 56 54
18 17 17 17 18 20 21 21 20 20 20 20 20 21 21 21 21 20 19 20 21 22 23 22 22 21 21 23 26 28 29 29 29 28 28 28 27 27 26 26 26 27 28 28 27 24 22 22 23 23 24 25 24 25 26 28 27 27 29 31 32 36 38 38 40 42 40 38 40 40 35 31 31 33 39 45 45 45 46 46 48 52 56 58 57
19 16 16 17 18 19 19 20 20 20 20 20 19 20 20 20 20 19 18 19 20 23 25 23 21 20 21 22 23 26 28 29 29 28 28 26 26 25 25 24 25 26 26 27 26 23 21 23 23 23 24 25 24 25 26 26 25 25 25 27 29 34 39 41 40 40 39 38 38 37 33 29 28 30 34 43 46 44 45 46 47 50 54 58 59
18 16 16 16 18 18 18 18 18 19 19 19 19 19 18 18 18 17 16 16 18 22 26 25 20 18 20 21 22 25 28 29 29 28 27 25 24 23 23 23 24 25 26 28 28 24 21 22 23 24 24 24 25 27 26 24 24 26 27 27 28 32 37 39 40 37 33 32 33 32 31 30 30 31 32 38 43 42 43 46 47 49 52 55 59
17 17 17 18 18 17 17 17 16 16 17 17 17 17 16 16 16 15 14 14 16 19 25 26 21 18 19 21 22 24 26 28 29 29 27 26 24 23 23 22 22 23 24 26 28 26 23 21 22 23 22 22 24 28 28 27 27 26 27 28 29 31 32 31 33 37 31 24 25 30 35 37 34 31 30 34 40 42 42 44 46 47 49 52 57
17 17 19 20 18 17 16 15 15 14 15 15 15 14 14 14 14 14 13 13 14 17 23 25 23 21 20 21 23 23 24 26 29 30 29 29 28 26 24 24 23 23 24 24 26 26 24 23 24 24 22 23 26 27 28 30 29 28 30 30 28 29 28 21 21 30 31 24 24 31 39 43 37 30 30 32 37 41 41 42 44 44 47 50 55
18 17 19 20 19 17 15 14 14 14 13 14 13 13 12 12 12 14 15 13 12 15 20 22 22 22 22 21 23 24 24 25 28 30 30 31 31 30 28 27 25 24 24 25 25 25 24 24 27 28 27 29 30 29 30 32 33 33 33 31 27 26 26 23 19 26 35 32 28 29 37 43 38 29 30 31 32 38 40 40 41 42 44 48 52
19 18 17 18 19 18 16 14 13 13 12 12 12 11 10 10 11 13 15 13 12 14 17 19 20 22 23 23 24 25 25 26 27 29 30 31 32 32 31 30 28 27 26 26 26 26 26 26 27 28 31 32 33 33 34 33 34 35 33 32 32 28 28 29 26 30 38 36 29 27 32 41 38 28 30 33 30 34 39 40 39 40 41 45 49
18 17 17 17 19 19 18 16 13 12 11 10 9 9 10 11 13 14 14 13 13 13 15 16 18 21 23 23 25 26 26 28 29 29 31 32 33 33 33 31 30 29 29 28 29 29 28 28 28 30 32 33 34 35 36 34 33 33 32 33 33 31 30 31 29 33 37 34 31 26 24 34 37 28 30 35 29 30 37 38 37 38 39 42 47
18 17 16 17 18 19 19 18 16 14 12 9 9 10 12 13 16 16 15 13 12 12 14 15 16 19 21 23 25 26 27 28 29 29 30 33 33 33 33 32 30 31 31 30 32 32 30 29 30 33 34 34 35 36 35 35 33 32 32 31 30 31 32 31 30 31 31 29 29 24 21 31 36 27 28 32 26 28 34 35 34 34 35 37 40
19 18 16 14 16 18 20 19 18 17 14 11 10 12 13 14 15 16 16 15 12 11 13 16 16 17 19 21 24 26 28 29 28 28 30 32 32 32 33 31 31 32 33 32 34 36 35 32 32 35 35 35 36 36 36 36 35 34 34 32 32 34 32 28 26 27 29 29 26 19 18 28 30 24 28 29 23 24 28 28 30 30 30 32 34
19 18 17 14 13 16 18 19 20 20 18 14 10 10 10 11 13 14 15 15 14 12 13 16 16 17 18 21 24 25 28 29 28 28 30 31 32 32 32 31 30 32 33 33 34 38 39 36 35 36 36 37 37 36 36 38 38 37 35 32 34 35 29 20 16 22 31 29 20 20 21 22 22 22 23 17 10 10 9 13 20 24 26 28 29
17 16 15 14 13 14 17 18 19 20 20 18 14 12 11 10 12 13 13 14 14 13 13 14 15 17 19 22 24 24 26 29 27 27 29 31 31 32 32 30 30 31 34 34 35 38 40 38 37 38 37 38 38 36 37 40 40 39 36 32 34 34 27 20 17 23 29 23 20 27 25 20 20 17 14 8 8 9 9 5 7 12 17 23 26
19 18 17 17 16 16 16 17 17 18 19 20 18 17 15 13 12 12 11 12 13 14 14 13 14 16 19 21 23 24 25 27 26 26 28 29 31 32 31 30 30 32 33 34 33 36 39 39 39 38 37 38 39 38 39 41 41 41 38 35 35 34 29 25 24 22 17 17 28 35 23 18 18 10 8 7 5 9 16 16 9 4 3 11 19
Wind_Direction
225 227 219 208 193 193 212 224 239 282 304 282 283 292 295 299 300 306 314 312 310 312 311 307 310 315 295 282 289 288 284 280 280 277 269 269 272 277 280 282 280 277 277 276 278 279 277 274 270 275 254 243 257 260 268 265 238 233 227 236 241 246 263 272 257 245 250 258 252 231 202 196 199 199 193 194 206 203 190 180 175 169 163 158 152
239 241 232 224 217 215 222 213 219 268 285 283 294 300 295 294 293 297 308 310 308 307 309 305 300 308 312 308 309 305 292 282 281 273 264 266 269 274 276 278 281 281 279 274 274 274 272 269 264 267 254 246 259 259 263 257 230 230 232 237 240 242 259 269 253 238 245 254 251 238 212 199 192 196 199 198 205 207 198 189 183 175 169 165 158
253 249 258 250 233 233 238 238 254 272 286 300 305 302 299 303 304 311 316 315 314 312 313 314 307 302 302 304 309 315 313 298 282 270 264 266 269 274 274 275 278 281 280 277 275 272 271 269 262 264 257 249 257 252 255 261 238 230 236 241 246 248 260 268 254 238 241 248 251 243 223 209 194 192 202 205 205 207 204 195 188 183 175 171 164
257 255 279 274 248 239 236 244 267 281 296 304 305 305 311 317 320 320 320 320 320 317 318 319 318 314 310 307 303 304 313 315 297 281 275 272 272 273 273 274 275 276 279 280 279 274 272 271 264 262 261 257 252 232 239 258 249 235 235 238 247 251 252 260 257 246 240 240 246 240 226 220 202 194 202 208 205 207 208 200 193 189 180 175 170
249 282 19 1 332 276 257 276 300 304 308 312 317 324 323 321 320 315 314 318 316 315 319 320 321 320 317 312 306 298 299 306 306 302 291 281 279 273 270 272 273 273 276 279 280 277 275 273 267 260 259 261 253 231 233 248 246 241 235 234 246 247 238 247 256 247 239 236 238 238 231 223 211 204 205 206 202 206 213 205 196 195 187 180 175
220 19 16 5 360 342 306 301 311 306 306 316 318 319 321 323 324 318 315 317 316 317 320 320 321 320 318 313 308 300 295 297 301 302 299 294 287 271 263 265 270 272 274 276 278 278 278 277 272 264 257 258 254 240 236 240 242 243 238 234 238 237 231 239 251 243 235 236 236 236 231 225 221 215 211 207 201 205 216 209 200 197 191 185 184
45 345 321 331 316 283 269 266 303 315 314 316 316 324 332 328 329 327 323 322 319 320 321 320 319 316 314 311 308 305 301 300 300 300 299 297 291 274 265 267 271 275 278 276 277 278 279 279 276 270 262 258 254 248 240 237 239 241 238 233 230 231 233 237 245 243 236 235 234 235 232 226 225 220 215 207 200 205 215 211 203 199 194 193 192
355 321 298 292 294 280 266 287 343 341 317 312 323 337 332 323 328 330 327 325 320 320 321 319 316 314 313 310 308 305 302 302 300 298 295 291 290 285 280 279 280 284 283 278 278 279 279 279 277 272 267 262 256 252 245 239 237 239 236 232 231 230 232 239 243 241 240 236 230 234 234 227 224 221 217 204 198 206 215 212 204 201 199 199 197
345 334 329 330 317 310 332 333 330 330 320 321 336 344 335 331 335 334 329 324 321 321 322 319 316 313 311 309 306 301 300 301 298 296 292 289 288 286 286 287 288 290 287 284 284 283 281 280 279 275 270 266 259 252 249 243 238 239 238 233 232 227 227 238 239 232 237 235 228 232 233 226 222 220 216 207 202 206 212 211 206 202 202 204 202
95 321 348 360 331 324 15 355 335 342 349 352 358 355 349 346 340 336 331 326 326 325 324 323 319 314 311 312 311 305 301 301 299 297 295 295 295 292 288 288 290 292 292 291 289 285 283 282 280 276 272 268 263 255 252 246 239 239 240 237 236 230 226 230 230 230 237 233 226 230 231 225 220 218 215 209 207 208 210 210 209 206 204 207 205
76 47 26 28 14 11 24 19 12 13 11 9 8 360 356 354 348 347 345 341 340 336 331 327 322 318 316 317 317 313 308 303 299 300 301 303 302 296 291 289 290 292 293 294 291 285 283 281 276 275 274 271 266 260 256 251 243 242 242 240 238 234 229 226 224 229 236 231 224 227 231 226 219 216 214 212 211 213 213 212 212 210 208 207 204
66 69 61 59 53 44 38 33 30 31 26 20 17 11 10 9 3 3 2 360 359 354 344 333 328 327 328 326 322 319 317 310 304 302 306 311 309 301 297 296 295 293 293 292 288 285 283 279 273 272 275 274 269 264 261 256 248 245 245 242 239 235 229 225 223 223 225 226 225 226 229 226 222 217 213 214 215 215 217 215 213 213 212 208 205
82 84 81 76 68 59 51 43 40 41 39 33 29 25 25 23 18 17 15 10 7 5 356 343 337 338 335 332 331 337 335 324 338 342 323 318 315 310 308 306 300 294 292 292 287 284 284 283 278 274 274 274 270 266 263 258 252 248 245 243 241 236 228 224 222 223 224 223 222 224 227 227 224 220 215 215 217 216 216 215 213 213 214 210 208
91 89 83 75 68 61 54 50 48 47 45 39 36 35 32 30 27 24 21 16 10 11 10 2 347 338 333 328 333 345 352 19 24 351 334 326 320 315 316 314 309 302 294 293 293 289 288 289 286 280 276 274 270 265 261 257 252 249 246 244 243 238 232 227 224 226 225 223 225 226 226 228 226 222 219 217 217 217 216 215 212 210 211 211 209
83 79 75 71 66 61 57 56 54 50 49 42 35 34 31 29 29 26 21 16 13 17 19 16 4 348 334 328 333 340 355 28 342 338 345 354 339 326 323 319 315 312 301 296 298 297 295 293 289 285 281 278 273 268 265 261 255 250 247 246 244 241 237 233 231 231 227 223 231 232 225 227 229 226 221 218 218 218 217 213 209 207 209 209 209
75 73 67 64 64 63 61 62 59 51 49 44 36 32 30 26 26 25 22 17 12 14 16 20 23 16 356 319 304 322 355 345 329 333 354 355 344 341 336 329 318 311 306 302 302 300 296 292 290 288 285 282 277 271 268 266 263 258 252 248 246 244 240 237 234 234 229 223 227 231 227 225 228 229 223 219 218 218 216 210 205 206 207 207 208
74 70 61 59 59 58 62 66 62 51 45 44 39 34 31 29 27 25 25 21 15 14 12 17 30 30 22 0 324 329 344 332 325 326 339 341 349 357 351 348 336 319 310 307 304 302 296 291 290 289 287 286 282 277 271 268 265 260 255 250 247 245 242 239 236 236 234 228 224 227 227 224 226 231 226 219 218 219 215 208 205 208 207 206 208
84 76 64 61 54 47 54 61 58 50 43 40 38 33 29 31 31 28 27 24 22 23 17 14 22 24 23 22 9 360 341 333 329 319 333 341 357 357 355 356 350 340 327 315 307 303 298 292 289 290 290 287 284 280 275 271 266 261 257 254 251 246 242 240 238 239 238 234 228 224 224 224 227 230 229 222 217 218 216 208 207 210 210 208 208
91 80 66 60 55 45 43 50 49 43 39 37 36 33 32 33 32 34 35 30 30 31 23 17 18 17 18 20 15 13 7 359 0 338 332 337 343 345 348 345 344 346 345 338 327 317 310 301 293 290 291 289 285 282 278 275 271 265 262 258 254 249 244 241 241 241 240 237 234 228 223 226 229 229 229 225 217 216 217 211 209 211 211 211 210
88 77 63 56 56 44 33 40 43 39 40 42 42 40 41 40 35 36 38 35 36 35 30 27 23 17 17 19 17 17 18 18 16 4 339 316 330 336 338 337 338 340 343 343 339 333 328 318 305 293 290 290 286 282 280 277 274 270 266 261 256 253 249 244 243 244 243 239 236 233 228 226 229 229 228 225 219 215 216 214 212 210 210 212 212
75 67 56 51 58 49 40 48 50 50 49 45 49 49 44 41 36 32 31 34 39 38 35 33 28 23 21 19 15 14 17 20 15 7 354 329 331 333 335 337 337 334 336 336 333 332 332 330 324 309 296 291 286 282 281 278 274 271 269 263 257 255 252 246 243 244 243 239 234 233 231 227 226 228 226 224 220 216 214 214 214 211 209 209 211
65 72 68 63 64 60 55 54 52 58 55 47 55 55 45 41 37 34 37 40 41 40 39 36 32 30 26 21 16 12 11 14 12 7 1 350 340 330 334 339 332 327 331 334 332 334 336 336 337 332 317 304 293 284 279 278 278 276 274 269 261 256 253 249 246 244 242 240 235 230 230 229 228 227 226 223 221 218 215 214 215 213 210 208 208
72 76 76 69 63 65 63 56 57 62 57 52 58 57 51 46 42 44 50 50 44 42 42 39 35 34 31 28 22 15 11 11 8 5 2 353 341 332 332 333 323 318 326 331 332 336 338 336 342 349 347 334 319 307 295 287 285 283 280 276 268 261 256 252 251 249 245 241 238 232 227 229 231 229 227 224 221 220 218 216 214 213 212 209 208
78 72 70 64 58 64 64 59 60 60 57 56 58 57 55 48 45 51 54 51 45 43 43 41 37 36 34 31 24 19 18 17 16 13 7 356 345 335 333 333 325 320 328 332 333 336 338 338 341 346 351 352 351 350 342 325 309 299 292 284 276 269 263 258 255 253 250 244 241 236 228 226 228 229 229 227 222 220 219 216 215 213 212 210 209
81 77 73 65 59 63 65 61 61 60 59 61 60 59 57 50 51 56 53 49 47 45 43 40 38 35 32 32 30 30 28 25 25 22 14 4 355 346 340 340 333 325 330 333 332 332 335 340 341 342 348 356 0 0 354 344 336 329 320 307 294 281 270 264 260 256 253 249 246 242 234 227 225 226 229 229 224 220 218 217 216 214 212 210 209
86 87 83 73 63 63 65 63 64 63 60 63 64 63 58 54 56 58 53 51 50 47 45 40 39 38 37 41 40 36 31 28 27 24 19 12 7 359 347 341 336 329 328 330 331 330 331 334 337 341 343 344 346 344 340 336 335 333 330 322 314 300 283 271 264 259 256 253 250 247 240 233 227 225 229 232 229 222 218 218 217 215 213 211 209
89 93 91 79 68 66 66 64 66 66 61 62 65 62 57 57 62 61 56 52 48 45 46 44 42 42 41 41 38 33 29 26 26 25 21 17 11 5 358 347 337 333 328 326 328 328 328 330 332 337 337 335 336 336 333 331 329 326 324 321 318 313 304 288 272 263 260 257 254 250 246 240 232 225 225 230 233 228 222 220 217 215 215 212 211
88 88 88 80 73 72 69 68 72 70 64 63 64 61 60 62 62 59 56 52 46 45 45 42 40 41 41 37 33 30 27 24 23 21 17 14 11 7 3 357 341 332 331 328 325 324 328 332 330 328 332 334 333 333 331 328 326 327 326 324 320 314 311 303 285 270 264 261 258 253 251 248 240 232 226 224 229 233 231 225 218 217 217 215 214
93 88 87 84 80 77 73 73 78 75 69 66 65 63 61 61 56 51 54 54 51 52 49 45 42 42 42 39 35 31 26 23 21 19 15 10 7 5 2 358 348 336 328 326 322 320 326 332 327 323 328 331 330 330 330 328 329 330 327 323 321 316 311 307 299 285 274 269 264 258 254 251 245 240 233 225 223 230 235 231 221 218 218 216 215
100 95 91 88 84 80 76 76 81 82 77 73 71 66 61 60 56 54 59 59 57 55 51 48 46 44 43 39 34 30 27 24 21 18 15 10 6 4 359 355 349 340 329 321 314 315 322 326 324 323 326 328 328 328 328 328 327 327 325 322 320 319 314 308 302 293 283 276 269 263 259 254 247 243 239 232 223 224 232 233 227 222 220 217 215
103 99 93 87 84 82 79 79 83 85 83 79 75 70 65 62 61 60 61 58 55 52 48 46 44 42 40 35 31 29 26 24 21 18 14 10 5 1 357 353 349 343 334 324 309 314 323 324 322 322 324 325 326 327 327 326 326 326 327 325 321 320 317 312 304 294 286 281 272 264 260 258 252 247 244 240 231 225 227 231 231 226 222 219 217
103 98 91 86 85 84 82 83 86 89 87 80 74 72 69 66 64 62 60 57 54 52 49 45 44 42 40 35 31 27 24 22 19 16 12 8 4 1 357 354 351 349 341 333 318 313 320 322 321 321 324 326 326 326 326 325 327 328 326 325 324 322 320 318 313 302 291 285 277 267 259 257 255 250 246 244 240 231 226 228 231 229 224 220 218
101 96 90 86 84 82 83 87 92 95 89 80 74 73 70 68 67 64 61 59 58 56 52 48 46 44 40 36 30 25 23 20 15 12 9 5 3 360 359 356 354 355 348 338 327 317 319 324 324 322 325 327 325 324 325 324 326 328 326 324 323 322 320 318 316 310 299 290 282 274 265 259 258 255 250 246 244 238 231 227 228 230 227 221 218
100 96 91 87 82 79 82 91 100 100 91 83 81 78 72 70 69 66 64 63 62 58 53 49 47 44 38 33 29 24 21 16 12 11 8 4 2 360 1 2 356 353 349 339 328 322 322 323 323 324 327 328 324 323 324 324 324 325 324 322 320 319 317 316 315 315 309 300 289 280 271 264 260 258 254 250 247 242 236 230 227 228 228 224 221
100 96 92 88 82 78 82 95 106 104 93 86 85 82 77 73 71 69 66 64 61 57 52 49 46 43 38 32 28 23 18 14 12 10 8 6 7 5 4 2 351 342 341 336 327 322 318 318 320 324 329 329 326 325 325 323 322 322 321 320 319 318 317 316 315 313 310 307 300 290 278 267 261 258 255 252 248 245 241 235 230 227 228 228 224
95 91 87 84 83 80 83 95 107 105 95 89 87 85 81 77 74 72 68 62 58 55 52 48 45 43 40 34 28 23 19 17 14 13 15 16 16 14 7 0 352 342 337 333 331 324 313 312 319 325 329 328 327 327 326 324 322 321 320 319 319 318 317 316 314 311 309 307 305 302 292 275 263 259 257 253 249 246 243 239 234 230 228 228 225
92 85 78 75 81 84 84 92 103 102 95 92 91 88 84 82 78 72 68 62 55 54 52 48 45 45 42 33 28 26 23 21 20 20 21 21 18 13 8 3 357 352 347 344 343 335 319 315 323 325 326 327 327 326 327 327 324 322 321 319 318 317 316 316 314 312 312 309 304 301 301 292 274 261 256 256 252 247 244 241 237 233 228 226 225
91 83 75 72 80 87 88 91 97 98 96 95 93 90 87 85 81 76 71 64 57 54 51 47 45 44 40 34 30 30 28 25 24 23 21 18 14 10 8 5 1 357 355 353 351 343 332 328 329 327 327 326 324 323 325 326 323 320 320 318 316 315 316 316 316 313 311 309 305 301 298 299 290 269 258 257 254 249 245 242 239 235 229 225 224
92 85 75 73 82 91 92 91 93 95 95 95 93 91 90 87 83 79 74 67 61 56 51 48 46 42 39 37 33 31 29 27 25 24 21 18 15 14 12 8 5 3 0 358 356 349 344 340 333 329 327 325 321 320 321 322 319 316 318 318 315 315 316 314 313 313 311 308 307 306 302 298 297 285 268 259 255 250 246 242 239 236 230 225 224
96 89 80 79 86 94 95 92 92 94 94 94 93 92 93 90 86 81 74 70 67 59 51 50 49 44 41 40 35 32 31 31 30 30 28 24 20 19 16 12 10 8 5 2 358 351 346 344 338 334 331 328 325 322 321 322 320 317 319 316 310 310 313 311 309 309 310 309 307 308 308 305 305 302 280 259 252 250 246 244 240 237 233 227 223
98 91 85 86 90 96 98 95 95 94 92 90 89 91 94 92 88 84 75 72 72 62 54 52 52 47 43 40 37 34 33 33 35 36 36 33 28 23 18 14 10 9 7 3 358 351 344 341 340 336 332 331 331 329 326 325 321 317 317 314 307 306 308 307 305 304 306 307 305 303 304 304 306 307 289 261 252 250 247 244 240 236 235 230 224
97 90 86 87 92 98 101 99 97 93 88 84 83 89 95 94 91 87 79 78 78 65 54 52 54 53 47 42 37 33 30 27 29 31 31 29 26 22 18 15 11 8 6 3 358 353 346 339 336 333 329 327 329 328 326 325 321 317 316 313 307 306 306 304 304 305 304 303 303 301 300 300 302 304 293 271 257 250 245 243 241 237 235 232 226
98 89 84 83 88 96 102 102 98 92 85 82 85 93 98 98 95 88 85 89 84 65 53 52 53 52 49 42 35 30 25 21 21 22 22 20 17 14 10 8 8 7 5 3 359 356 349 341 336 332 327 323 325 325 324 325 324 320 317 314 307 304 305 303 303 305 304 302 301 299 298 299 300 296 290 278 261 250 245 244 244 241 238 235 229
102 91 82 79 81 89 100 103 97 91 88 87 91 97 101 104 100 91 89 91 82 63 54 53 52 48 44 37 32 28 23 20 17 15 15 15 13 11 7 3 0 360 360 360 359 357 354 347 340 336 334 330 329 328 327 327 327 324 322 317 309 302 298 295 293 293 296 299 298 293 292 295 296 289 283 279 265 253 250 248 247 244 241 238 232
106 96 86 79 77 82 93 99 96 92 91 89 91 94 95 99 101 99 93 82 70 61 55 53 52 47 40 33 29 26 23 20 16 12 12 11 10 11 9 5 360 356 356 356 357 357 356 352 345 340 340 337 333 332 332 333 331 327 326 321 314 309 301 296 294 291 294 297 291 283 283 287 289 284 276 275 268 257 252 249 247 246 243 241 236
108 100 91 82 78 80 85 92 96 93 87 84 84 81 83 88 90 93 91 74 63 61 56 52 50 45 37 31 27 24 22 21 16 12 11 10 9 9 8 6 1 359 358 356 356 355 352 353 350 344 344 343 338 337 337 339 336 330 328 325 321 318 311 306 304 298 297 297 288 278 276 281 283 280 273 272 268 258 252 249 247 246 245 244 238
110 104 94 83 79 80 83 87 91 89 81 81 81 75 81 91 89 86 84 74 66 64 56 50 45 39 31 28 27 24 21 20 16 13 11 10 9 8 6 6 3 1 1 1 360 356 349 348 349 347 348 347 345 344 344 345 344 340 337 333 330 329 324 320 319 310 304 302 290 271 260 272 277 271 267 270 265 255 252 248 247 247 245 245 241
116 112 104 91 83 81 83 85 86 84 80 82 84 80 84 94 92 86 83 77 74 73 60 48 41 34 26 24 26 23 21 19 16 14 13 11 11 9 6 7 6 3 3 4 3 1 354 348 349 350 352 352 352 352 351 352 353 351 349 346 344 343 335 327 325 318 311 307 299 287 277 276 275 265 264 269 260 250 247 243 245 249 246 244 242
123 119 114 107 93 84 82 84 83 81 78 77 82 84 86 93 91 86 81 75 74 78 66 49 38 32 27 25 24 21 19 17 15 14 14 12 12 11 8 8 7 3 4 5 4 4 0 354 352 354 357 358 357 356 356 358 360 360 357 353 349 346 337 329 326 321 316 310 312 332 323 295 280 267 260 257 235 224 229 227 235 245 246 245 244
129 128 126 118 104 89 83 82 82 81 77 74 77 78 81 88 89 85 81 73 69 70 64 49 32 26 25 23 21 18 16 15 14 15 15 13 13 12 9 9 7 3 4 5 3 2 0 358 357 358 0 2 1 358 359 1 4 5 3 356 351 346 339 335 332 324 321 319 332 343 330 302 295 277 234 172 104 80 68 97 207 233 240 242 244
122 122 120 113 104 94 86 81 79 80 79 75 73 73 75 82 83 80 78 70 62 57 52 40 24 20 22 22 20 18 16 15 15 17 17 15 15 15 13 12 9 4 4 5 1 358 357 356 357 357 358 3 3 2 2 3 5 7 5 0 356 350 341 338 336 332 326 321 335 342 328 296 307 296 193 147 84 60 56 62 77 86 212 231 237